Retour au catalogue

STARLINK-3655

ActifCommunicationsVLEO
NORAD 51983·PAYLOAD·🇺🇸 United States

Lancé Mar 9, 2022 depuis Cape Canaveral Space Force Station

Loading…

Prochains Passages (prochaines 24 heures)

TLE

FraisSource: CelesTrak SupGP

Époque: Sep 14, 2026, 20:57 UTC

1 51983C 22025AD  26257.87340278  .00052453  00000+0  14827-2 0  2577
2 51983  53.1580 261.7976 0001694  63.6559 223.3236 15.35749731    19

Suivez STARLINK-3655 en temps réel avec AllMySat

Download on the App Store